AFL796 UWWW-LTAI

Flight info

Callsign AFL796
Flight time 3h 5m
Altitude 34000
Route K0835F340 NIDOG T790 RORNA T789 DAFOS P135 KR G900 OBABI/K0832F350 G900 KUTON/K0841F360 G900 ODIRA UW96 SIN UT61 BAG/N0450F350 UW77 HALIL UP29 HISAR
Aircraft A320/M-SDE2E3FGHIJ1RWY/LB1U1

Departure

Time 2026-05-05 11:53
Airport Kurumoch International Airport (UWWW)

Arrival

Time 2026-05-05 14:58
Airport Antalya International Airport (LTAI)
Time Latitude Longitude Altitude Speed Heading
2026-05-05 11:27 53.51138 50.15818 447 ft 0 kts 332°
2026-05-05 11:42 53.51127 50.15828 447 ft 4 kts 335°
2026-05-05 11:43 53.51102 50.15843 447 ft 4 kts 349°
2026-05-05 11:43 53.51076 50.15846 447 ft 4 kts 12°
2026-05-05 11:43 53.51053 50.15829 447 ft 4 kts 54°
2026-05-05 11:43 53.51050 50.15821 447 ft 0 kts 62°
2026-05-05 11:46 53.51054 50.15834 447 ft 5 kts 62°
2026-05-05 11:46 53.51084 50.15932 447 ft 11 kts 63°
2026-05-05 11:47 53.51119 50.16038 447 ft 9 kts 60°
2026-05-05 11:47 53.51148 50.16126 447 ft 8 kts 61°
2026-05-05 11:47 53.51174 50.16210 447 ft 11 kts 62°
2026-05-05 11:47 53.51226 50.16369 447 ft 18 kts 61°
2026-05-05 11:48 53.51335 50.16705 447 ft 13 kts 62°
2026-05-05 11:48 53.51373 50.16824 447 ft 10 kts 62°
2026-05-05 11:48 53.51388 50.16869 447 ft 0 kts 62°
2026-05-05 11:50 53.51387 50.16869 447 ft 0 kts 62°
2026-05-05 11:51 53.51392 50.16883 447 ft 4 kts 62°
2026-05-05 11:51 53.51415 50.16954 448 ft 10 kts 61°
2026-05-05 11:52 53.51449 50.17058 449 ft 8 kts 63°
2026-05-05 11:52 53.51425 50.17103 449 ft 5 kts 159°
2026-05-05 11:52 53.51367 50.17138 450 ft 26 kts 160°
2026-05-05 11:52 53.50957 50.17383 433 ft 97 kts 160°
2026-05-05 11:53 53.50135 50.17867 445 ft 151 kts 161°
2026-05-05 11:53 53.49092 50.18454 965 ft 158 kts 162°
2026-05-05 11:53 53.48041 50.19075 1615 ft 162 kts 162°
2026-05-05 11:53 53.46976 50.19730 2282 ft 163 kts 162°
2026-05-05 11:54 53.45899 50.20395 2802 ft 166 kts 162°
2026-05-05 11:54 53.44812 50.21056 3341 ft 166 kts 163°
2026-05-05 11:54 53.43710 50.21712 3778 ft 173 kts 162°
2026-05-05 11:54 53.42503 50.22424 4048 ft 194 kts 162°
2026-05-05 11:55 53.41147 50.22809 4345 ft 206 kts 193°
2026-05-05 11:55 53.39935 50.21575 4626 ft 219 kts 234°
2026-05-05 11:55 53.39276 50.19127 4880 ft 244 kts 250°
2026-05-05 11:55 53.38684 50.16329 5292 ft 263 kts 251°
2026-05-05 11:56 53.38076 50.13404 6032 ft 268 kts 251°
2026-05-05 11:56 53.37464 50.10433 6824 ft 272 kts 251°
2026-05-05 11:56 53.36835 50.07413 7553 ft 277 kts 251°
2026-05-05 11:56 53.36193 50.04355 8303 ft 281 kts 251°
2026-05-05 11:57 53.35538 50.01255 9066 ft 285 kts 251°
2026-05-05 11:57 53.34869 49.98111 9810 ft 289 kts 251°
2026-05-05 11:57 53.34182 49.94924 10478 ft 293 kts 251°
2026-05-05 11:57 53.33467 49.91637 10814 ft 312 kts 251°
2026-05-05 11:58 53.32700 49.88100 10963 ft 335 kts 251°
2026-05-05 11:58 53.31958 49.84344 11235 ft 351 kts 258°
2026-05-05 11:58 53.31617 49.80265 11787 ft 357 kts 265°
2026-05-05 11:58 53.31364 49.76116 12432 ft 360 kts 265°
2026-05-05 11:59 53.31101 49.71932 13084 ft 364 kts 265°
2026-05-05 11:59 53.30829 49.67705 13734 ft 367 kts 265°
2026-05-05 11:59 53.30550 49.63434 14313 ft 371 kts 265°
2026-05-05 11:59 53.30269 49.59139 14889 ft 374 kts 265°
2026-05-05 12:00 53.29988 49.54802 15466 ft 377 kts 265°
2026-05-05 12:00 53.29705 49.50435 16034 ft 379 kts 265°
2026-05-05 12:00 53.29417 49.46032 16593 ft 382 kts 265°
2026-05-05 12:00 53.29125 49.41607 17172 ft 384 kts 265°
2026-05-05 12:01 53.28834 49.37217 17719 ft 387 kts 265°
2026-05-05 12:01 53.28532 49.32736 18252 ft 390 kts 265°
2026-05-05 12:01 53.28226 49.28220 18713 ft 392 kts 265°
2026-05-05 12:01 53.27918 49.23681 19157 ft 395 kts 265°
2026-05-05 12:02 53.27604 49.19103 19611 ft 398 kts 266°
2026-05-05 12:02 53.27287 49.14501 20072 ft 400 kts 266°
2026-05-05 12:02 53.26966 49.09875 20541 ft 402 kts 266°
2026-05-05 12:02 53.26641 49.05226 20986 ft 404 kts 266°
2026-05-05 12:03 53.26255 49.00557 21430 ft 408 kts 261°
2026-05-05 12:03 53.25458 48.95980 21866 ft 413 kts 252°
2026-05-05 12:03 53.24469 48.91471 22294 ft 416 kts 253°
2026-05-05 12:03 53.23478 48.86917 22723 ft 418 kts 253°
2026-05-05 12:04 53.22822 48.83899 22999 ft 419 kts 253°
2026-05-05 12:04 53.21823 48.79299 23418 ft 422 kts 253°
2026-05-05 12:04 53.20498 48.73188 23863 ft 425 kts 253°
2026-05-05 12:04 53.19488 48.68542 24181 ft 428 kts 252°
2026-05-05 12:05 53.18467 48.63874 24498 ft 430 kts 252°
2026-05-05 12:05 53.17436 48.59186 24826 ft 432 kts 252°
2026-05-05 12:05 53.16395 48.54471 25150 ft 434 kts 252°
2026-05-05 12:05 53.15703 48.51348 25355 ft 435 kts 252°
2026-05-05 12:06 53.14652 48.46610 25679 ft 437 kts 252°
2026-05-05 12:06 53.13598 48.41845 25999 ft 439 kts 252°
2026-05-05 12:06 53.12539 48.37066 26322 ft 441 kts 251°
2026-05-05 12:06 53.11470 48.32270 26638 ft 443 kts 251°
2026-05-05 12:07 53.10388 48.27454 26941 ft 445 kts 251°
2026-05-05 12:07 53.09270 48.22651 27241 ft 447 kts 250°
2026-05-05 12:07 53.08115 48.17830 27514 ft 449 kts 249°
2026-05-05 12:07 53.06943 48.13012 27829 ft 450 kts 249°
2026-05-05 12:08 53.05764 48.08186 28120 ft 451 kts 249°
2026-05-05 12:08 53.04582 48.03337 28390 ft 453 kts 249°
2026-05-05 12:08 53.03402 47.98472 28650 ft 455 kts 249°
2026-05-05 12:08 53.02221 47.93590 28894 ft 457 kts 249°
2026-05-05 12:09 53.01032 47.88678 29145 ft 459 kts 249°
2026-05-05 12:09 52.99856 47.83823 29364 ft 461 kts 249°
2026-05-05 12:09 52.98656 47.78892 29643 ft 462 kts 249°
2026-05-05 12:09 52.97449 47.73962 30000 ft 461 kts 248°
2026-05-05 12:10 52.96239 47.69029 30268 ft 461 kts 248°
2026-05-05 12:10 52.95034 47.64101 30529 ft 461 kts 248°
2026-05-05 12:10 52.93824 47.59182 30814 ft 461 kts 248°
2026-05-05 12:10 52.92612 47.54276 31145 ft 459 kts 248°
2026-05-05 12:11 52.91402 47.49377 31425 ft 459 kts 248°
2026-05-05 12:11 52.90192 47.44476 31685 ft 459 kts 248°
2026-05-05 12:11 52.88987 47.39588 31979 ft 459 kts 248°
2026-05-05 12:11 52.87780 47.34709 32309 ft 457 kts 247°
2026-05-05 12:12 52.86568 47.29840 32589 ft 457 kts 247°
2026-05-05 12:12 52.85358 47.24993 32883 ft 456 kts 247°
2026-05-05 12:12 52.84128 47.20160 33179 ft 455 kts 244°
2026-05-05 12:12 52.82560 47.15623 33462 ft 454 kts 234°
2026-05-05 12:13 52.80565 47.11601 33742 ft 452 kts 224°
2026-05-05 12:13 52.78243 47.08216 33913 ft 451 kts 215°
2026-05-05 12:13 52.72845 47.03062 33959 ft 448 kts 207°
2026-05-05 12:14 52.67323 46.98284 33942 ft 448 kts 206°
2026-05-05 12:14 52.61813 46.93519 33947 ft 447 kts 206°
2026-05-05 12:15 52.56308 46.88755 33953 ft 447 kts 206°
2026-05-05 12:15 52.50801 46.84009 33946 ft 447 kts 206°
2026-05-05 12:16 52.45335 46.79312 33941 ft 447 kts 206°
2026-05-05 12:16 52.39833 46.74600 33949 ft 446 kts 206°
2026-05-05 12:17 52.34339 46.69900 33956 ft 445 kts 206°
2026-05-05 12:17 52.28854 46.65221 33959 ft 445 kts 206°
2026-05-05 12:18 52.23367 46.60552 33953 ft 444 kts 206°
2026-05-05 12:18 52.17920 46.55942 33954 ft 444 kts 206°
2026-05-05 12:19 52.12440 46.51312 33951 ft 443 kts 206°
2026-05-05 12:19 52.06966 46.46699 33949 ft 443 kts 206°
2026-05-05 12:20 52.01489 46.42101 33964 ft 443 kts 206°
2026-05-05 12:20 51.96013 46.37523 33952 ft 443 kts 206°
2026-05-05 12:21 51.90539 46.32951 33956 ft 443 kts 206°
2026-05-05 12:21 51.85100 46.28427 33963 ft 442 kts 206°
2026-05-05 12:22 51.79626 46.23880 33970 ft 442 kts 206°
2026-05-05 12:22 51.74154 46.19342 33970 ft 442 kts 206°
2026-05-05 12:23 51.68680 46.14815 33966 ft 442 kts 206°
2026-05-05 12:23 51.63204 46.10303 33967 ft 442 kts 206°
2026-05-05 12:24 51.57768 46.05834 33963 ft 442 kts 206°
2026-05-05 12:24 51.52269 46.01436 33959 ft 441 kts 205°
2026-05-05 12:25 51.46714 45.97235 33961 ft 441 kts 204°
2026-05-05 12:25 51.41150 45.93079 33953 ft 441 kts 204°
2026-05-05 12:26 51.35593 45.88885 33953 ft 442 kts 205°
2026-05-05 12:26 51.30045 45.84673 33951 ft 442 kts 205°
2026-05-05 12:27 51.24530 45.80489 33953 ft 442 kts 205°
2026-05-05 12:27 51.18972 45.76296 33959 ft 442 kts 205°
2026-05-05 12:28 51.13408 45.72124 33961 ft 442 kts 205°
2026-05-05 12:28 51.07846 45.67974 33961 ft 442 kts 205°
2026-05-05 12:29 51.02441 45.63487 33962 ft 442 kts 214°
2026-05-05 12:29 50.97585 45.57505 33961 ft 442 kts 218°
2026-05-05 12:30 50.92746 45.51491 33962 ft 442 kts 217°
2026-05-05 12:30 50.87900 45.45495 33963 ft 442 kts 217°
2026-05-05 12:31 50.83008 45.39595 33967 ft 442 kts 216°
2026-05-05 12:31 50.78038 45.33881 33970 ft 442 kts 215°
2026-05-05 12:32 50.73059 45.28193 33968 ft 442 kts 215°
2026-05-05 12:32 50.68128 45.22519 33972 ft 442 kts 216°
2026-05-05 12:33 50.63171 45.16804 33969 ft 441 kts 216°
2026-05-05 12:33 50.58208 45.11096 33969 ft 441 kts 215°
2026-05-05 12:34 50.53242 45.05407 33964 ft 442 kts 215°
2026-05-05 12:34 50.48270 44.99732 33961 ft 442 kts 215°
2026-05-05 12:35 50.43292 44.94056 33961 ft 442 kts 215°
2026-05-05 12:35 50.38308 44.88397 33963 ft 442 kts 215°
2026-05-05 12:36 50.33346 44.82795 33962 ft 443 kts 215°
2026-05-05 12:36 50.28349 44.77151 33961 ft 443 kts 215°
2026-05-05 12:37 50.23342 44.71502 33963 ft 444 kts 215°
2026-05-05 12:37 50.18334 44.65862 33965 ft 444 kts 215°
2026-05-05 12:38 50.13314 44.60232 33958 ft 445 kts 214°
2026-05-05 12:38 50.08274 44.54607 33956 ft 447 kts 214°
2026-05-05 12:39 50.03210 44.48968 33952 ft 448 kts 214°
2026-05-05 12:39 49.98127 44.43315 33954 ft 450 kts 214°
2026-05-05 12:40 49.93031 44.37665 33963 ft 451 kts 214°
2026-05-05 12:40 49.87948 44.32048 33961 ft 452 kts 214°
2026-05-05 12:41 49.82824 44.26386 33957 ft 453 kts 214°
2026-05-05 12:41 49.80257 44.23558 34108 ft 453 kts 214°
2026-05-05 12:41 49.77683 44.20734 34341 ft 453 kts 214°
2026-05-05 12:42 49.75112 44.17921 34579 ft 453 kts 214°
2026-05-05 12:42 49.72538 44.15103 34818 ft 453 kts 214°
2026-05-05 12:42 49.69966 44.12289 34954 ft 454 kts 214°
2026-05-05 12:42 49.67390 44.09470 34987 ft 453 kts 214°
2026-05-05 12:43 49.62251 44.03853 34986 ft 453 kts 214°
2026-05-05 12:43 49.57139 43.98278 34986 ft 453 kts 214°
2026-05-05 12:44 49.51984 43.92689 34988 ft 454 kts 213°
2026-05-05 12:44 49.46706 43.87364 34988 ft 453 kts 210°
2026-05-05 12:45 49.41305 43.82370 34985 ft 453 kts 209°
2026-05-05 12:45 49.35892 43.77394 34982 ft 453 kts 210°
2026-05-05 12:46 49.30515 43.72349 34987 ft 454 kts 210°
2026-05-05 12:46 49.25197 43.67127 34979 ft 455 kts 217°
2026-05-05 12:47 49.20279 43.61121 34978 ft 456 kts 217°
2026-05-05 12:47 49.15302 43.55117 34979 ft 456 kts 217°
2026-05-05 12:48 49.10314 43.49144 34983 ft 456 kts 216°
2026-05-05 12:48 49.05324 43.43164 34982 ft 456 kts 216°
2026-05-05 12:49 49.00338 43.37187 34984 ft 456 kts 216°
2026-05-05 12:49 48.95380 43.31250 34988 ft 456 kts 216°
2026-05-05 12:50 48.90385 43.25294 34986 ft 456 kts 216°
2026-05-05 12:50 48.85386 43.19352 34983 ft 456 kts 216°
2026-05-05 12:51 48.80380 43.13427 34989 ft 456 kts 216°
2026-05-05 12:51 48.75373 43.07510 34990 ft 456 kts 216°
2026-05-05 12:52 48.70392 43.01632 34983 ft 457 kts 216°
2026-05-05 12:52 48.65365 42.95728 34982 ft 457 kts 216°
2026-05-05 12:53 48.60337 42.89842 34982 ft 458 kts 216°
2026-05-05 12:53 48.55301 42.83944 34984 ft 458 kts 215°
2026-05-05 12:54 48.47714 42.75144 34980 ft 459 kts 215°
2026-05-05 12:55 48.42644 42.69303 34983 ft 459 kts 215°
2026-05-05 12:55 48.37571 42.63464 34988 ft 459 kts 215°
2026-05-05 12:56 48.32501 42.57620 34985 ft 459 kts 215°
2026-05-05 12:56 48.27451 42.51830 34984 ft 460 kts 215°
2026-05-05 12:57 48.22329 42.45983 34987 ft 460 kts 214°
2026-05-05 12:57 48.17269 42.40223 34994 ft 460 kts 214°
2026-05-05 12:58 48.12171 42.34438 34990 ft 460 kts 214°
2026-05-05 12:58 48.07066 42.28664 34991 ft 460 kts 214°
2026-05-05 12:59 48.01953 42.22904 34991 ft 460 kts 214°
2026-05-05 12:59 47.96838 42.17160 35000 ft 460 kts 214°
2026-05-05 13:00 47.89159 42.08550 34995 ft 460 kts 214°
2026-05-05 13:01 47.78951 41.97138 34996 ft 460 kts 214°
2026-05-05 13:01 47.73821 41.91437 35010 ft 460 kts 214°
2026-05-05 13:02 47.68697 41.85754 35009 ft 459 kts 214°
2026-05-05 13:02 47.63582 41.80077 35008 ft 459 kts 214°
2026-05-05 13:03 47.58462 41.74421 35018 ft 459 kts 214°
2026-05-05 13:03 47.53382 41.68822 35009 ft 458 kts 214°
2026-05-05 13:04 47.48257 41.63206 35003 ft 458 kts 214°
2026-05-05 13:04 47.43136 41.57597 35018 ft 458 kts 214°
2026-05-05 13:05 47.38014 41.51986 35007 ft 458 kts 214°
2026-05-05 13:05 47.32897 41.46389 35006 ft 458 kts 214°
2026-05-05 13:06 47.27777 41.40799 35004 ft 458 kts 214°
2026-05-05 13:06 47.22684 41.35261 35012 ft 458 kts 213°
2026-05-05 13:07 47.17549 41.29707 35005 ft 458 kts 213°
2026-05-05 13:07 47.12412 41.24159 35004 ft 458 kts 213°
2026-05-05 13:08 47.07272 41.18623 35013 ft 458 kts 213°
2026-05-05 13:08 47.02130 41.13096 35013 ft 458 kts 213°
2026-05-05 13:09 46.97023 41.07600 35014 ft 459 kts 213°
2026-05-05 13:09 46.91884 41.02074 35015 ft 458 kts 213°
2026-05-05 13:10 46.86732 40.96575 35021 ft 458 kts 213°
2026-05-05 13:10 46.81581 40.91092 35014 ft 458 kts 213°
2026-05-05 13:11 46.76436 40.85589 35015 ft 459 kts 214°
2026-05-05 13:11 46.71338 40.79996 35015 ft 459 kts 214°
2026-05-05 13:12 46.66283 40.74414 35016 ft 459 kts 214°
2026-05-05 13:12 46.61182 40.68836 35014 ft 459 kts 214°
2026-05-05 13:13 46.56064 40.63288 35012 ft 459 kts 213°
2026-05-05 13:13 46.50925 40.57799 35021 ft 458 kts 213°
2026-05-05 13:14 46.45776 40.52345 35020 ft 458 kts 213°
2026-05-05 13:14 46.40635 40.46894 35017 ft 458 kts 213°
2026-05-05 13:15 46.35537 40.41477 35011 ft 458 kts 213°
2026-05-05 13:15 46.30397 40.36045 35023 ft 457 kts 213°
2026-05-05 13:16 46.25260 40.30632 35017 ft 457 kts 213°
2026-05-05 13:16 46.20130 40.25236 35008 ft 456 kts 213°
2026-05-05 13:17 46.14997 40.19847 35017 ft 456 kts 213°
2026-05-05 13:17 46.09901 40.14506 35006 ft 456 kts 213°
2026-05-05 13:18 46.04763 40.09133 35002 ft 456 kts 213°
2026-05-05 13:18 45.99621 40.03780 34996 ft 456 kts 213°
2026-05-05 13:19 45.94474 39.98433 34991 ft 456 kts 213°
2026-05-05 13:19 45.89331 39.93090 34990 ft 456 kts 213°
2026-05-05 13:20 45.84184 39.87759 34990 ft 456 kts 212°
2026-05-05 13:20 45.79037 39.82438 34997 ft 456 kts 213°
2026-05-05 13:21 45.73935 39.77114 34987 ft 457 kts 213°
2026-05-05 13:21 45.68798 39.71757 34984 ft 457 kts 213°
2026-05-05 13:22 45.63651 39.66420 34980 ft 457 kts 213°
2026-05-05 13:22 45.58498 39.61097 34979 ft 458 kts 213°
2026-05-05 13:23 45.53328 39.55775 34976 ft 458 kts 212°
2026-05-05 13:23 45.48141 39.50517 34974 ft 458 kts 212°
2026-05-05 13:24 45.43810 39.46165 34987 ft 458 kts 212°
2026-05-05 13:24 45.37749 39.40080 34976 ft 459 kts 212°
2026-05-05 13:25 45.33380 39.35683 34975 ft 459 kts 212°
2026-05-05 13:25 45.28201 39.30463 34966 ft 459 kts 212°
2026-05-05 13:26 45.22979 39.25230 34962 ft 460 kts 212°
2026-05-05 13:26 45.17747 39.20009 34959 ft 460 kts 212°
2026-05-05 13:27 45.12513 39.14786 34957 ft 460 kts 212°
2026-05-05 13:27 45.07271 39.09573 34971 ft 461 kts 212°
2026-05-05 13:28 45.02027 39.04363 34964 ft 461 kts 212°
2026-05-05 13:28 44.96775 38.99155 34963 ft 461 kts 212°
2026-05-05 13:29 44.91551 38.93990 34978 ft 462 kts 212°
2026-05-05 13:29 44.86287 38.88800 34971 ft 462 kts 212°
2026-05-05 13:30 44.81015 38.83625 34970 ft 462 kts 212°
2026-05-05 13:30 44.75736 38.78452 34969 ft 462 kts 212°
2026-05-05 13:31 44.70445 38.73318 34970 ft 462 kts 211°
2026-05-05 13:31 44.65138 38.68201 34962 ft 463 kts 211°
2026-05-05 13:32 44.59867 38.63122 34966 ft 463 kts 211°
2026-05-05 13:32 44.54557 38.58004 34973 ft 463 kts 212°
2026-05-05 13:33 44.49252 38.52905 34972 ft 463 kts 212°
2026-05-05 13:33 44.43939 38.47817 34970 ft 463 kts 212°
2026-05-05 13:34 44.38658 38.42771 34979 ft 463 kts 212°
2026-05-05 13:34 44.33349 38.37683 34971 ft 463 kts 212°
2026-05-05 13:35 44.28059 38.32567 34973 ft 463 kts 212°
2026-05-05 13:35 44.22739 38.27511 34970 ft 462 kts 211°
2026-05-05 13:36 44.17358 38.22608 34970 ft 462 kts 210°
2026-05-05 13:36 44.11966 38.17725 34970 ft 462 kts 211°
2026-05-05 13:37 44.06626 38.12846 35088 ft 462 kts 211°
2026-05-05 13:37 44.03909 38.10362 35347 ft 462 kts 211°
2026-05-05 13:37 44.01259 38.07938 35584 ft 461 kts 211°
2026-05-05 13:38 43.98585 38.05486 35822 ft 461 kts 211°
2026-05-05 13:38 43.95911 38.03026 35966 ft 461 kts 211°
2026-05-05 13:38 43.90565 37.98107 35993 ft 461 kts 211°
2026-05-05 13:39 43.85223 37.93216 36004 ft 460 kts 211°
2026-05-05 13:39 43.79882 37.88351 36009 ft 458 kts 211°
2026-05-05 13:40 43.74557 37.83511 36002 ft 458 kts 211°
2026-05-05 13:40 43.69269 37.78719 36004 ft 457 kts 211°
2026-05-05 13:41 43.63945 37.73902 35997 ft 458 kts 211°
2026-05-05 13:41 43.58619 37.69089 35997 ft 458 kts 211°
2026-05-05 13:42 43.53297 37.64272 36003 ft 458 kts 211°
2026-05-05 13:42 43.47966 37.59466 36002 ft 458 kts 211°
2026-05-05 13:43 43.42633 37.54682 36000 ft 458 kts 211°
2026-05-05 13:43 43.37290 37.49910 35999 ft 458 kts 211°
2026-05-05 13:44 43.31980 37.45180 36008 ft 458 kts 211°
2026-05-05 13:44 43.26633 37.40414 36005 ft 458 kts 211°
2026-05-05 13:45 43.21287 37.35654 36002 ft 458 kts 211°
2026-05-05 13:45 43.15934 37.30907 36008 ft 458 kts 211°
2026-05-05 13:46 43.10582 37.26160 36013 ft 458 kts 211°
2026-05-05 13:46 43.05232 37.21432 36018 ft 457 kts 211°
2026-05-05 13:47 42.99879 37.16741 36019 ft 457 kts 211°
2026-05-05 13:47 42.94553 37.12098 36015 ft 457 kts 211°
2026-05-05 13:48 42.89201 37.07419 36015 ft 457 kts 211°
2026-05-05 13:48 42.83852 37.02744 36019 ft 457 kts 211°
2026-05-05 13:49 42.78496 36.98086 36016 ft 457 kts 211°
2026-05-05 13:49 42.73252 36.93204 36015 ft 458 kts 220°
2026-05-05 13:50 42.69174 36.86577 36013 ft 460 kts 239°
2026-05-05 13:50 42.66320 36.78859 36010 ft 460 kts 243°
2026-05-05 13:51 42.63494 36.71058 36008 ft 461 kts 243°
2026-05-05 13:51 42.60646 36.63257 36012 ft 461 kts 243°
2026-05-05 13:52 42.57787 36.55473 36012 ft 461 kts 243°
2026-05-05 13:52 42.54930 36.47689 36016 ft 461 kts 243°
2026-05-05 13:53 42.52072 36.39907 36014 ft 461 kts 243°
2026-05-05 13:53 42.49226 36.32177 36011 ft 461 kts 243°
2026-05-05 13:54 42.46350 36.24401 36013 ft 462 kts 243°
2026-05-05 13:54 42.43467 36.16623 36007 ft 462 kts 243°
2026-05-05 13:55 42.40577 36.08847 36014 ft 463 kts 243°
2026-05-05 13:55 42.37677 36.01071 36017 ft 463 kts 243°
2026-05-05 13:56 42.34774 35.93304 36025 ft 463 kts 243°
2026-05-05 13:56 42.31865 35.85549 36027 ft 463 kts 243°
2026-05-05 13:57 42.28974 35.77857 36027 ft 462 kts 243°
2026-05-05 13:57 42.26057 35.70114 36030 ft 462 kts 243°
2026-05-05 13:58 42.23144 35.62389 36031 ft 462 kts 243°
2026-05-05 13:58 42.20218 35.54674 36031 ft 462 kts 243°
2026-05-05 13:59 42.15824 35.43113 36033 ft 462 kts 243°
2026-05-05 14:00 42.11927 35.32864 36030 ft 462 kts 243°
2026-05-05 14:00 42.08531 35.23915 36037 ft 462 kts 243°
2026-05-05 14:01 42.05597 35.16225 36044 ft 462 kts 243°
2026-05-05 14:01 42.02458 35.08690 36044 ft 463 kts 234°
2026-05-05 14:02 41.98016 35.02452 36042 ft 463 kts 222°
2026-05-05 14:02 41.93209 34.96694 36040 ft 463 kts 222°
2026-05-05 14:03 41.88399 34.90929 36030 ft 464 kts 222°
2026-05-05 14:03 41.83585 34.85173 36024 ft 464 kts 222°
2026-05-05 14:04 41.78796 34.79457 36015 ft 464 kts 222°
2026-05-05 14:04 41.73969 34.73710 36004 ft 464 kts 223°
2026-05-05 14:05 41.69136 34.67981 36000 ft 464 kts 222°
2026-05-05 14:05 41.64296 34.62250 35998 ft 464 kts 223°
2026-05-05 14:06 41.59462 34.56517 35994 ft 465 kts 223°
2026-05-05 14:06 41.54656 34.50830 35986 ft 465 kts 223°
2026-05-05 14:07 41.49830 34.45098 35981 ft 465 kts 223°
2026-05-05 14:07 41.44996 34.39361 35964 ft 465 kts 223°
2026-05-05 14:08 41.40162 34.33636 35967 ft 465 kts 223°
2026-05-05 14:08 41.35325 34.27912 35960 ft 465 kts 223°
2026-05-05 14:09 41.30508 34.22246 35975 ft 465 kts 223°
2026-05-05 14:09 41.25658 34.16555 35970 ft 465 kts 223°
2026-05-05 14:10 41.20808 34.10879 35970 ft 464 kts 223°
2026-05-05 14:10 41.15953 34.05220 35959 ft 464 kts 223°
2026-05-05 14:11 41.11095 33.99565 35952 ft 464 kts 223°
2026-05-05 14:11 41.06275 33.93954 35952 ft 465 kts 223°
2026-05-05 14:12 41.01415 33.88306 35949 ft 465 kts 223°
2026-05-05 14:12 40.96541 33.82667 35950 ft 465 kts 223°
2026-05-05 14:13 40.91661 33.77037 35946 ft 466 kts 223°
2026-05-05 14:13 40.86781 33.71402 35944 ft 466 kts 224°
2026-05-05 14:14 40.81886 33.65770 35945 ft 467 kts 224°
2026-05-05 14:14 40.77017 33.60184 35945 ft 467 kts 224°
2026-05-05 14:15 40.72112 33.54568 35942 ft 467 kts 224°
2026-05-05 14:15 40.67202 33.48949 35949 ft 468 kts 224°
2026-05-05 14:16 40.62278 33.43335 35950 ft 468 kts 224°
2026-05-05 14:16 40.57350 33.37732 35946 ft 468 kts 224°
2026-05-05 14:17 40.52424 33.32119 35958 ft 468 kts 224°
2026-05-05 14:17 40.47495 33.26512 35762 ft 469 kts 224°
2026-05-05 14:18 40.45032 33.23718 35585 ft 468 kts 224°
2026-05-05 14:18 40.42595 33.20956 35421 ft 469 kts 224°
2026-05-05 14:18 40.40124 33.18162 35249 ft 469 kts 225°
2026-05-05 14:18 40.37654 33.15373 35074 ft 469 kts 225°
2026-05-05 14:19 40.35180 33.12587 34936 ft 468 kts 225°
2026-05-05 14:19 40.32702 33.09798 34955 ft 469 kts 225°
2026-05-05 14:19 40.27752 33.04225 34974 ft 469 kts 225°
2026-05-05 14:20 40.22794 32.98655 34974 ft 470 kts 225°
2026-05-05 14:20 40.17831 32.93095 34964 ft 469 kts 225°
2026-05-05 14:21 40.12875 32.87556 34978 ft 469 kts 225°
2026-05-05 14:21 40.07898 32.82064 34976 ft 470 kts 220°
2026-05-05 14:22 40.02242 32.77788 34965 ft 475 kts 211°
2026-05-05 14:22 39.96363 32.73857 34968 ft 474 kts 211°
2026-05-05 14:23 39.90498 32.69923 34969 ft 474 kts 211°
2026-05-05 14:23 39.84631 32.65995 34972 ft 474 kts 211°
2026-05-05 14:24 39.78801 32.62108 34971 ft 474 kts 211°
2026-05-05 14:24 39.72940 32.58206 34956 ft 473 kts 211°
2026-05-05 14:25 39.67079 32.54315 34973 ft 473 kts 211°
2026-05-05 14:25 39.61226 32.50441 34983 ft 472 kts 211°
2026-05-05 14:26 39.55378 32.46567 34987 ft 472 kts 211°
2026-05-05 14:26 39.49541 32.42700 34986 ft 471 kts 211°
2026-05-05 14:27 39.43743 32.38866 34985 ft 471 kts 211°
2026-05-05 14:27 39.37904 32.35020 34976 ft 471 kts 211°
2026-05-05 14:28 39.32054 32.31202 34967 ft 471 kts 211°
2026-05-05 14:28 39.26205 32.27404 34978 ft 471 kts 211°
2026-05-05 14:29 39.20354 32.23606 34978 ft 471 kts 211°
2026-05-05 14:29 39.14508 32.19810 34987 ft 470 kts 211°
2026-05-05 14:30 39.08702 32.16041 34987 ft 470 kts 211°
2026-05-05 14:30 39.02856 32.12254 34991 ft 470 kts 211°
2026-05-05 14:31 38.97008 32.08473 34995 ft 470 kts 211°
2026-05-05 14:31 38.91161 32.04711 34992 ft 470 kts 211°
2026-05-05 14:32 38.85320 32.00961 35001 ft 469 kts 211°
2026-05-05 14:32 38.79489 31.97220 35008 ft 468 kts 211°
2026-05-05 14:33 38.73658 31.93486 35009 ft 468 kts 211°
2026-05-05 14:33 38.67873 31.89785 35010 ft 468 kts 211°
2026-05-05 14:34 38.62054 31.86070 35011 ft 467 kts 211°
2026-05-05 14:34 38.56237 31.82364 35003 ft 467 kts 211°
2026-05-05 14:35 38.50386 31.78640 34453 ft 469 kts 210°
2026-05-05 14:35 38.47481 31.76793 33872 ft 466 kts 211°
2026-05-05 14:35 38.44583 31.74954 33124 ft 465 kts 211°
2026-05-05 14:36 38.41682 31.73119 32325 ft 465 kts 211°
2026-05-05 14:36 38.38781 31.71287 31533 ft 466 kts 211°
2026-05-05 14:36 38.35890 31.69464 30968 ft 461 kts 211°
2026-05-05 14:36 38.33064 31.67685 30404 ft 457 kts 211°
2026-05-05 14:37 38.30296 31.65769 29798 ft 446 kts 221°
2026-05-05 14:37 38.28093 31.63122 29177 ft 428 kts 238°
2026-05-05 14:37 38.26521 31.59964 28532 ft 419 kts 245°
2026-05-05 14:37 38.25085 31.56754 27899 ft 416 kts 246°
2026-05-05 14:38 38.23664 31.53560 27294 ft 413 kts 246°
2026-05-05 14:38 38.22263 31.50397 26720 ft 409 kts 246°
2026-05-05 14:38 38.20890 31.47256 26128 ft 404 kts 246°
2026-05-05 14:38 38.19557 31.44134 25553 ft 398 kts 250°
2026-05-05 14:39 38.18580 31.40884 25012 ft 391 kts 256°
2026-05-05 14:39 38.17707 31.37670 24452 ft 388 kts 256°
2026-05-05 14:39 38.16833 31.34436 23902 ft 386 kts 256°
2026-05-05 14:39 38.15962 31.31226 23346 ft 383 kts 256°
2026-05-05 14:40 38.15096 31.28040 22731 ft 380 kts 256°
2026-05-05 14:40 38.14244 31.24871 22142 ft 378 kts 256°
2026-05-05 14:40 38.13415 31.21715 21557 ft 376 kts 256°
2026-05-05 14:40 38.12608 31.18568 21005 ft 374 kts 256°
2026-05-05 14:41 38.11816 31.15431 20476 ft 372 kts 256°
2026-05-05 14:41 38.10860 31.12374 19960 ft 375 kts 243°
2026-05-05 14:41 38.09227 31.09779 19472 ft 380 kts 224°
2026-05-05 14:41 38.06997 31.07971 18995 ft 384 kts 204°
2026-05-05 14:42 38.04454 31.07098 18518 ft 384 kts 193°
2026-05-05 14:42 38.01833 31.06447 17997 ft 383 kts 192°
2026-05-05 14:42 37.99225 31.05812 17518 ft 380 kts 192°
2026-05-05 14:42 37.96664 31.05192 17342 ft 369 kts 192°
2026-05-05 14:43 37.94185 31.04591 17207 ft 357 kts 192°
2026-05-05 14:43 37.91782 31.04006 17044 ft 347 kts 192°
2026-05-05 14:43 37.89447 31.03437 17004 ft 337 kts 192°
2026-05-05 14:43 37.87153 31.02874 17013 ft 335 kts 193°
2026-05-05 14:44 37.85640 31.02501 17013 ft 334 kts 193°
2026-05-05 14:44 37.83360 31.01937 17005 ft 334 kts 193°
2026-05-05 14:44 37.81077 31.01375 17010 ft 334 kts 193°
2026-05-05 14:44 37.78131 31.00652 17009 ft 317 kts 193°
2026-05-05 14:45 37.75951 31.00117 16683 ft 329 kts 193°
2026-05-05 14:45 37.73670 30.99552 16067 ft 336 kts 193°
2026-05-05 14:45 37.72131 30.99174 15918 ft 332 kts 193°
2026-05-05 14:45 37.69846 30.98616 15377 ft 338 kts 192°
2026-05-05 14:46 37.67548 30.98056 15044 ft 335 kts 193°
2026-05-05 14:46 37.65299 30.97508 14743 ft 332 kts 193°
2026-05-05 14:46 37.63038 30.96956 14387 ft 331 kts 193°
2026-05-05 14:46 37.60787 30.96406 14057 ft 328 kts 193°
2026-05-05 14:47 37.58551 30.95861 13739 ft 326 kts 193°
2026-05-05 14:47 37.56339 30.95321 13435 ft 320 kts 193°
2026-05-05 14:47 37.54193 30.94799 13060 ft 310 kts 193°
2026-05-05 14:47 37.52087 30.94286 12446 ft 306 kts 193°
2026-05-05 14:48 37.50006 30.93779 11857 ft 303 kts 192°
2026-05-05 14:48 37.47949 30.93278 11270 ft 300 kts 193°
2026-05-05 14:48 37.45911 30.92780 10693 ft 298 kts 192°
2026-05-05 14:48 37.43895 30.92225 10267 ft 294 kts 198°
2026-05-05 14:49 37.41971 30.91404 9826 ft 291 kts 200°
2026-05-05 14:49 37.40059 30.90585 9163 ft 290 kts 200°
2026-05-05 14:49 37.38197 30.89788 8944 ft 273 kts 199°
2026-05-05 14:49 37.36481 30.89055 8785 ft 256 kts 201°
2026-05-05 14:50 37.34837 30.88353 8605 ft 243 kts 201°
2026-05-05 14:50 37.33265 30.87682 8347 ft 235 kts 200°
2026-05-05 14:50 37.31724 30.87024 7965 ft 234 kts 200°
2026-05-05 14:50 37.30170 30.86461 7607 ft 232 kts 192°
2026-05-05 14:51 37.28586 30.86057 7213 ft 232 kts 193°
2026-05-05 14:51 37.27007 30.85648 6799 ft 231 kts 193°
2026-05-05 14:51 37.25442 30.85239 6463 ft 228 kts 193°
2026-05-05 14:51 37.23893 30.84833 6028 ft 227 kts 193°
2026-05-05 14:52 37.22351 30.84429 5626 ft 226 kts 193°
2026-05-05 14:52 37.20819 30.84022 5262 ft 224 kts 196°
2026-05-05 14:52 37.19334 30.83454 4984 ft 222 kts 196°
2026-05-05 14:52 37.17833 30.83106 4669 ft 223 kts 189°
2026-05-05 14:53 37.16294 30.82877 4420 ft 221 kts 188°
2026-05-05 14:53 37.14795 30.82673 4311 ft 212 kts 188°
2026-05-05 14:53 37.13376 30.82479 4157 ft 201 kts 188°
2026-05-05 14:53 37.11999 30.82289 3863 ft 198 kts 187°
2026-05-05 14:54 37.10625 30.82099 3549 ft 199 kts 188°
2026-05-05 14:54 37.09254 30.81910 3403 ft 197 kts 188°
2026-05-05 14:54 37.07886 30.81721 3328 ft 199 kts 186°
2026-05-05 14:54 37.06512 30.81532 3115 ft 198 kts 187°
2026-05-05 14:55 37.05143 30.81343 2864 ft 197 kts 186°
2026-05-05 14:55 37.03790 30.81157 2599 ft 194 kts 186°
2026-05-05 14:55 37.02471 30.80976 2351 ft 186 kts 186°
2026-05-05 14:55 37.01234 30.80806 2115 ft 178 kts 186°
2026-05-05 14:56 37.00028 30.80640 1893 ft 171 kts 186°
2026-05-05 14:56 36.98903 30.80485 1675 ft 155 kts 186°
2026-05-05 14:56 36.97870 30.80343 1468 ft 144 kts 186°
2026-05-05 14:56 36.96892 30.80207 1270 ft 139 kts 186°
2026-05-05 14:57 36.95949 30.80075 1077 ft 135 kts 186°
2026-05-05 14:57 36.95028 30.79957 898 ft 132 kts 186°
2026-05-05 14:57 36.94121 30.79830 732 ft 131 kts 186°
2026-05-05 14:57 36.93226 30.79710 565 ft 128 kts 185°
2026-05-05 14:58 36.92342 30.79588 389 ft 128 kts 185°
2026-05-05 14:58 36.91459 30.79467 227 ft 127 kts 185°
2026-05-05 14:58 36.90659 30.79360 193 ft 93 kts 186°
2026-05-05 14:58 36.90185 30.79294 193 ft 44 kts 186°
2026-05-05 14:59 36.89966 30.79263 189 ft 28 kts 187°
2026-05-05 14:59 36.89781 30.79237 194 ft 25 kts 186°
2026-05-05 14:59 36.89624 30.79223 201 ft 18 kts 173°
2026-05-05 14:59 36.89515 30.79274 190 ft 15 kts 156°
2026-05-05 15:00 36.89466 30.79301 191 ft 3 kts 156°
2026-05-05 15:00 36.89451 30.79309 197 ft 4 kts 156°
2026-05-05 15:00 36.89416 30.79365 198 ft 10 kts 98°
2026-05-05 15:00 36.89465 30.79414 198 ft 10 kts
2026-05-05 15:01 36.89528 30.79421 195 ft 9 kts
2026-05-05 15:01 36.89585 30.79429 196 ft 9 kts
2026-05-05 15:01 36.89648 30.79437 197 ft 7 kts
2026-05-05 15:01 36.89661 30.79441 194 ft 0 kts 20°
2026-05-05 15:02 36.89663 30.79444 194 ft 3 kts 35°
2026-05-05 15:02 36.89664 30.79489 201 ft 9 kts 96°
2026-05-05 15:02 36.89652 30.79620 192 ft 21 kts 96°
2026-05-05 15:02 36.89634 30.79816 204 ft 23 kts 97°
2026-05-05 15:03 36.89618 30.80012 202 ft 21 kts 96°
2026-05-05 15:03 36.89604 30.80159 199 ft 12 kts 97°
2026-05-05 15:03 36.89596 30.80252 192 ft 9 kts 92°
2026-05-05 15:03 36.89627 30.80308 199 ft 8 kts 23°
2026-05-05 15:04 36.89670 30.80291 192 ft 6 kts 318°
2026-05-05 15:04 36.89690 30.80267 200 ft 1 kts 304°
2026-05-05 15:04 36.89699 30.80236 202 ft 5 kts 301°
2026-05-05 15:04 36.89708 30.80225 192 ft 1 kts 316°
2026-05-05 15:05 36.89711 30.80221 192 ft 0 kts 316°